Regional Weather Roundup
Issued by NWS

Home | Current Version | Previous Version | Text Only | Print | Product List | Glossary On
Versions: 1 2 3 4 5 6 7 8 9 10 11 12 13 14 15 16 17 18 19 20 21 22 23 24 25 26 27 28 29 30 31 32 33 34 35 36 37 38 39 40 41 42 43 44 45 46 47 48 49 50
315
ASUS44 KLIX 230701
RWRLA
LOUISIANA WEATHER ROUNDUP
NATIONAL WEATHER SERVICE NEW ORLEANS LA
200 AM CDT THU OCT 23 2014

NOTE: "FAIR" INDICATES FEW OR NO CLOUDS BELOW 12,000 FEET WITH NO
      SIGNIFICANT WEATHER AND/OR OBSTRUCTIONS TO VISIBILITY.
      SKY/WX - SKY CONDITION AND SIGNIFICANT WEATHER.
      TMP - AIR TEMPERATURE.    DP   - DEWPOINT TEMPERATURE.
      RH  - RELATIVE HUMIDITY.  PRES - PRESSURE.
      HX  - HEAT INDEX.         WCI  - WIND CHILL INDEX.

*  THESE STATIONS ARE NOT NWS OR FAA STATIONS AND ARE NOT UNDER
   NWS QUALITY CONTROL.

LAZ040-048-061>063-065-066-069-230800-
SOUTHEAST LOUISIANA

CITY           SKY/WX    TMP DP  RH WIND       PRES   REMARKS
N.O. AUDUBON     N/A     65  51  59 MISG        N/A
N.O. INTL ARPT CLEAR     66  48  52 E14       30.06F
N.O. LAKEFRONT LGT RAIN  66  51  58 E20       30.07S
N.O. DOWNTOWN* FAIR      64  45  48 NE9       30.07S
SLIDELL        CLEAR     53  48  83 N5        30.07F
BATON ROUGE    CLEAR     54  50  86 CALM      30.10R
BOOTHVILLE     CLEAR     71  57  61 NE12G17   30.04S
BELLE CHASSE   CLEAR     62  52  69 NE8       30.05F
BOGALUSA*        N/A     49  46  90 CALM      30.10F
NEW ROADS*     FAIR      55  49  82 N6        30.10S
GONZALES*      FAIR      58  53  85 CALM      30.08S
HAMMOND*       NOT AVBL
HOUMA*         CLEAR     59  55  86 N6        30.05F
PORT FOURCHON* SUNNY     70  61  73 NE10      30.06F

$$

LAZ041-044-053-054-230800-
SOUTHWEST LOUISIANA

CITY           SKY/WX    TMP DP  RH WIND       PRES   REMARKS
LAKE CHARLES   CLEAR     60  52  74 NE10      30.08F
LAFAYETTE      CLEAR     57  53  86 NE7       30.09S
PATTERSON      CLEAR     57  54  88 NE6       30.08F
SALT POINT       N/A     62  56  80 CALM      30.05F
NEW IBERIA     CLEAR     61  54  77 NE8       30.09S
CHENAULT AIRPK CLEAR     59  53  79 N8        30.08F

$$

LAZ027-028-230800-
CENTRAL LOUISIANA

CITY           SKY/WX    TMP DP  RH WIND       PRES   REMARKS
FORT POLK      CLEAR     58  50  73 NE7       30.10F
ALEXANDRIA INT CLEAR     55  49  80 NE3       30.10F
ALEXANDRIA     CLEAR     51  48  89 CALM      30.12F

$$

LAZ001-002-230800-
NORTHWEST LOUISIANA

CITY           SKY/WX    TMP DP  RH WIND       PRES   REMARKS
SHREVEPORT     CLOUDY    58  51  78 E6        30.13S
BARKSDALE AFB  CLOUDY    58  48  70 NE3       30.14R
DTN SHREVEPORT CLOUDY    58  51  78 CALM      30.14S

$$

LAZ014-016-230800-
NORTHEAST LOUISIANA

CITY           SKY/WX    TMP DP  RH WIND       PRES   REMARKS
MONROE         CLEAR     50  47  89 CALM      30.14F
TALLULAH       CLEAR     44  42  93 CALM      30.14S

$$




USA.gov is the U.S. government's official web portal to all federal, state and local government web resources and services.